owner,sensor,date,latitude,longitude,vertical_datum,direction_of_sea_water_velocity,sea_water_speed,upward_sea_water_velocity,qcFlag 
TABS,ioos:station:wmo:42044:1,2006-03-01T00:00:00Z,26.1914,-97.0507,2.0,175.0066383,9.536188966,-99999.0,'11133222,11111222,99999999' 
TABS,ioos:station:wmo:42044:1,2006-03-01T00:30:00Z,26.1914,-97.0507,2.0,165.0217738,8.705779689,-99999.0,'11133222,11111222,99999999' 
TABS,ioos:station:wmo:42044:1,2006-03-01T01:00:00Z,26.1914,-97.0507,2.0,175.3163272,7.715763086,-99999.0,'11133222,11111222,99999999' 
TABS,ioos:station:wmo:42044:1,2006-03-01T01:30:00Z,26.1914,-97.0507,2.0,166.5679098,9.427884174,-99999.0,'11133222,11111222,99999999' 
TABS,ioos:station:wmo:42044:1,2006-03-01T02:00:00Z,26.1914,-97.0507,2.0,153.4629972,9.087381361,-99999.0,'11133222,11111222,99999999' 
TABS,ioos:station:wmo:42044:1,2006-03-01T02:30:00Z,26.1914,-97.0507,2.0,168.3304691,10.62970366,-99999.0,'11111222,11111222,99999999' 
TABS,ioos:station:wmo:42044:1,2006-03-01T03:00:00Z,26.1914,-97.0507,2.0,147.3943868,9.817178821,-99999.0,'11133222,11111222,99999999' 
TABS,ioos:station:wmo:42044:1,2006-03-01T03:30:00Z,26.1914,-97.0507,2.0,166.2013188,9.936770099,-99999.0,'11133222,11111222,99999999' 
TABS,ioos:station:wmo:42044:1,2006-03-01T04:00:00Z,26.1914,-97.0507,2.0,171.971555,7.160174579,-99999.0,'11133222,11111222,99999999' 
TABS,ioos:station:wmo:42044:1,2006-03-01T04:30:00Z,26.1914,-97.0507,2.0,157.1108485,7.533160028,-99999.0,'11133222,11111222,99999999' 
TABS,ioos:station:wmo:42044:1,2006-03-01T05:00:00Z,26.1914,-97.0507,2.0,154.5946771,10.16277521,-99999.0,'11111222,11111222,99999999' 
TABS,ioos:station:wmo:42044:1,2006-03-01T05:30:00Z,26.1914,-97.0507,2.0,167.9465831,7.70997406,-99999.0,'11133222,11111222,99999999' 
TABS,ioos:station:wmo:42044:1,2006-03-01T06:00:00Z,26.1914,-97.0507,2.0,160.4874217,7.903929403,-99999.0,'11133222,11111222,99999999' 
TABS,ioos:station:wmo:42044:1,2006-03-01T06:30:00Z,26.1914,-97.0507,2.0,158.9290936,7.426560442,-99999.0,'11133222,11111222,99999999' 
TABS,ioos:station:wmo:42044:1,2006-03-01T07:00:00Z,26.1914,-97.0507,2.0,162.1809423,8.823264702,-99999.0,'11133222,11111222,99999999' 
TABS,ioos:station:wmo:42044:1,2006-03-01T07:30:00Z,26.1914,-97.0507,2.0,143.9676889,8.754935751,-99999.0,'11133222,11111222,99999999' 
TABS,ioos:station:wmo:42044:1,2006-03-01T08:00:00Z,26.1914,-97.0507,2.0,156.0816199,9.200054348,-99999.0,'11133222,11111222,99999999' 
TABS,ioos:station:wmo:42044:1,2006-03-01T08:30:00Z,26.1914,-97.0507,2.0,154.3588437,8.319254774,-99999.0,'11133222,11111222,99999999' 
TABS,ioos:station:wmo:42044:1,2006-03-01T09:00:00Z,26.1914,-97.0507,2.0,153.5274119,8.300295175,-99999.0,'11133222,11111222,99999999' 
TABS,ioos:station:wmo:42044:1,2006-03-01T09:30:00Z,26.1914,-97.0507,2.0,153.6127367,8.640208331,-99999.0,'11133222,11111222,99999999' 
TABS,ioos:station:wmo:42044:1,2006-03-01T10:00:00Z,26.1914,-97.0507,2.0,142.671708,10.75234393,-99999.0,'11111222,11111222,99999999' 
TABS,ioos:station:wmo:42044:1,2006-03-01T10:30:00Z,26.1914,-97.0507,2.0,143.1198944,11.36400018,-99999.0,'11111222,11111222,99999999' 
TABS,ioos:station:wmo:42044:1,2006-03-01T11:00:00Z,26.1914,-97.0507,2.0,147.1479218,10.61809776,-99999.0,'11111222,11111222,99999999' 
TABS,ioos:station:wmo:42044:1,2006-03-01T11:30:00Z,26.1914,-97.0507,2.0,142.2261779,11.41141972,-99999.0,'11111222,11111222,99999999' 
TABS,ioos:station:wmo:42044:1,2006-03-01T12:00:00Z,26.1914,-97.0507,2.0,144.181776,11.87600101,-99999.0,'11111222,11111222,99999999' 
TABS,ioos:station:wmo:42044:1,2006-03-01T12:30:00Z,26.1914,-97.0507,2.0,152.2941087,12.13083674,-99999.0,'11111222,11111222,99999999' 
TABS,ioos:station:wmo:42044:1,2006-03-01T13:00:00Z,26.1914,-97.0507,2.0,156.6354997,13.61653407,-99999.0,'11111222,11111222,99999999' 
TABS,ioos:station:wmo:42044:1,2006-03-01T13:30:00Z,26.1914,-97.0507,2.0,159.6497015,14.0040637,-99999.0,'11111222,11111222,99999999' 
TABS,ioos:station:wmo:42044:1,2006-03-01T14:00:00Z,26.1914,-97.0507,2.0,161.8577908,14.2272731,-99999.0,'11111222,11111222,99999999' 
TABS,ioos:station:wmo:42044:1,2006-03-01T14:30:00Z,26.1914,-97.0507,2.0,164.1404604,11.89269103,-99999.0,'11111222,11111222,99999999' 
TABS,ioos:station:wmo:42044:1,2006-03-01T15:00:00Z,26.1914,-97.0507,2.0,155.4290553,12.33715121,-99999.0,'11111222,11111222,99999999' 
TABS,ioos:station:wmo:42044:1,2006-03-01T15:30:00Z,26.1914,-97.0507,2.0,160.6178104,12.05308674,-99999.0,'11111222,11111222,99999999' 
TABS,ioos:station:wmo:42044:1,2006-03-01T16:00:00Z,26.1914,-97.0507,2.0,160.4674003,12.38258858,-99999.0,'11111222,11111222,99999999' 
TABS,ioos:station:wmo:42044:1,2006-03-01T16:30:00Z,26.1914,-97.0507,2.0,157.8678432,10.29883489,-99999.0,'11111222,11111222,99999999' 
TABS,ioos:station:wmo:42044:1,2006-03-01T17:00:00Z,26.1914,-97.0507,2.0,169.5164148,10.33247308,-99999.0,'11111222,11111222,99999999' 
TABS,ioos:station:wmo:42044:1,2006-03-01T17:30:00Z,26.1914,-97.0507,2.0,158.4115501,9.485383493,-99999.0,'11133222,11111222,99999999' 
TABS,ioos:station:wmo:42044:1,2006-03-01T18:00:00Z,26.1914,-97.0507,2.0,161.0920282,9.196216613,-99999.0,'11133222,11111222,99999999' 
TABS,ioos:station:wmo:42044:1,2006-03-01T18:30:00Z,26.1914,-97.0507,2.0,158.4905779,6.191163057,-99999.0,'11133222,11111222,99999999' 
TABS,ioos:station:wmo:42044:1,2006-03-01T19:00:00Z,26.1914,-97.0507,2.0,153.0249255,8.752194011,-99999.0,'11133222,11111222,99999999' 
TABS,ioos:station:wmo:42044:1,2006-03-01T19:30:00Z,26.1914,-97.0507,2.0,162.6774846,8.631483071,-99999.0,'11133222,11111222,99999999' 
TABS,ioos:station:wmo:42044:1,2006-03-01T20:00:00Z,26.1914,-97.0507,2.0,160.7574274,9.649067312,-99999.0,'11133222,11111222,99999999' 
TABS,ioos:station:wmo:42044:1,2006-03-01T20:30:00Z,26.1914,-97.0507,2.0,158.849339,8.009556792,-99999.0,'11133222,11111222,99999999' 
TABS,ioos:station:wmo:42044:1,2006-03-01T21:00:00Z,26.1914,-97.0507,2.0,174.7545638,9.188476479,-99999.0,'11133222,11111222,99999999' 
TABS,ioos:station:wmo:42044:1,2006-03-01T21:30:00Z,26.1914,-97.0507,2.0,164.0049186,7.947685198,-99999.0,'11133222,11111222,99999999' 
TABS,ioos:station:wmo:42044:1,2006-03-01T22:00:00Z,26.1914,-97.0507,2.0,170.1340057,5.602856414,-99999.0,'11133222,11111222,99999999' 
TABS,ioos:station:wmo:42044:1,2006-03-01T22:30:00Z,26.1914,-97.0507,2.0,162.7203718,5.958942859,-99999.0,'11133222,11111222,99999999' 
TABS,ioos:station:wmo:42044:1,2006-03-01T23:00:00Z,26.1914,-97.0507,2.0,133.1260257,4.973620412,-99999.0,'11133222,11111222,99999999' 
TABS,ioos:station:wmo:42044:1,2006-03-01T23:30:00Z,26.1914,-97.0507,2.0,125.6909826,6.51337854,-99999.0,'11133222,11111222,99999999' 
TABS,ioos:station:wmo:42044:1,2006-03-02T00:00:00Z,26.1914,-97.0507,2.0,124.0596329,5.588720784,-99999.0,'11133222,11111222,99999999' 
TABS,ioos:station:wmo:42044:1,2006-03-02T00:30:00Z,26.1914,-97.0507,2.0,123.9135077,4.265676969,-99999.0,'11133222,11111222,99999999' 
TABS,ioos:station:wmo:42044:1,2006-03-02T01:00:00Z,26.1914,-97.0507,2.0,130.9213689,4.076186944,-99999.0,'11133222,11111222,99999999' 
TABS,ioos:station:wmo:42044:1,2006-03-02T01:30:00Z,26.1914,-97.0507,2.0,97.47638885,3.842668344,-99999.0,'11133222,11111222,99999999' 
TABS,ioos:station:wmo:42044:1,2006-03-02T02:00:00Z,26.1914,-97.0507,2.0,144.072827,4.618625337,-99999.0,'11133222,11111222,99999999' 
TABS,ioos:station:wmo:42044:1,2006-03-02T02:30:00Z,26.1914,-97.0507,2.0,120.7204389,4.443568386,-99999.0,'11133222,11111222,99999999' 
TABS,ioos:station:wmo:42044:1,2006-03-02T03:00:00Z,26.1914,-97.0507,2.0,108.8464396,3.962436119,-99999.0,'11133222,11111222,99999999' 
TABS,ioos:station:wmo:42044:1,2006-03-02T03:30:00Z,26.1914,-97.0507,2.0,121.6946894,4.30153461,-99999.0,'11133222,11111222,99999999' 
TABS,ioos:station:wmo:42044:1,2006-03-02T04:00:00Z,26.1914,-97.0507,2.0,147.6191876,2.912936663,-99999.0,'11133222,11111222,99999999' 
TABS,ioos:station:wmo:42044:1,2006-03-02T04:30:00Z,26.1914,-97.0507,2.0,150.7943963,3.688956492,-99999.0,'11133222,11111222,99999999' 
TABS,ioos:station:wmo:42044:1,2006-03-02T05:00:00Z,26.1914,-97.0507,2.0,160.7097884,2.11896201,-99999.0,'11133222,11111222,99999999' 
TABS,ioos:station:wmo:42044:1,2006-03-02T05:30:00Z,26.1914,-97.0507,2.0,148.4289796,3.075142273,-99999.0,'11133222,11111222,99999999' 
TABS,ioos:station:wmo:42044:1,2006-03-02T06:00:00Z,26.1914,-97.0507,2.0,101.124083,1.814083791,-99999.0,'11133222,11111222,99999999' 
TABS,ioos:station:wmo:42044:1,2006-03-02T06:30:00Z,26.1914,-97.0507,2.0,117.2995084,3.139697438,-99999.0,'11133222,11111222,99999999' 
TABS,ioos:station:wmo:42044:1,2006-03-02T07:00:00Z,26.1914,-97.0507,2.0,164.6989797,2.197908096,-99999.0,'11133222,11111222,99999999' 
TABS,ioos:station:wmo:42044:1,2006-03-02T07:30:00Z,26.1914,-97.0507,2.0,183.7515098,2.445240274,-99999.0,'11133222,11111222,99999999' 
TABS,ioos:station:wmo:42044:1,2006-03-02T08:00:00Z,26.1914,-97.0507,2.0,179.9997895,1.42,-99999.0,'11133222,11111222,99999999' 
TABS,ioos:station:wmo:42044:1,2006-03-02T08:30:00Z,26.1914,-97.0507,2.0,161.9655461,0.452216762,-99999.0,'11133222,11111222,99999999' 
TABS,ioos:station:wmo:42044:1,2006-03-02T09:00:00Z,26.1914,-97.0507,2.0,146.9463929,3.24519645,-99999.0,'11133222,11111222,99999999' 
TABS,ioos:station:wmo:42044:1,2006-03-02T09:30:00Z,26.1914,-97.0507,2.0,152.0408594,3.860595809,-99999.0,'11133222,11111222,99999999' 
TABS,ioos:station:wmo:42044:1,2006-03-02T10:00:00Z,26.1914,-97.0507,2.0,155.8176399,3.442048808,-99999.0,'11133222,11111222,99999999' 
TABS,ioos:station:wmo:42044:1,2006-03-02T10:30:00Z,26.1914,-97.0507,2.0,144.192676,5.931020148,-99999.0,'11133222,11111222,99999999' 
TABS,ioos:station:wmo:42044:1,2006-03-02T11:00:00Z,26.1914,-97.0507,2.0,161.0105897,3.595677961,-99999.0,'11133222,11111222,99999999' 
TABS,ioos:station:wmo:42044:1,2006-03-02T11:30:00Z,26.1914,-97.0507,2.0,123.6521948,4.204628402,-99999.0,'11133222,11111222,99999999' 
TABS,ioos:station:wmo:42044:1,2006-03-02T12:00:00Z,26.1914,-97.0507,2.0,107.4747334,3.962890359,-99999.0,'11133222,11111222,99999999' 
TABS,ioos:station:wmo:42044:1,2006-03-02T12:30:00Z,26.1914,-97.0507,2.0,125.0348806,4.372241988,-99999.0,'11133222,11111222,99999999' 
TABS,ioos:station:wmo:42044:1,2006-03-02T13:00:00Z,26.1914,-97.0507,2.0,120.7388005,3.932492848,-99999.0,'11133222,11111222,99999999' 
TABS,ioos:station:wmo:42044:1,2006-03-02T13:30:00Z,26.1914,-97.0507,2.0,125.1032459,5.060405122,-99999.0,'11133222,11111222,99999999' 
TABS,ioos:station:wmo:42044:1,2006-03-02T14:00:00Z,26.1914,-97.0507,2.0,105.2985547,4.623851209,-99999.0,'11133222,11111222,99999999' 
TABS,ioos:station:wmo:42044:1,2006-03-02T14:30:00Z,26.1914,-97.0507,2.0,125.3947131,4.661544808,-99999.0,'11133222,11111222,99999999' 
TABS,ioos:station:wmo:42044:1,2006-03-02T15:00:00Z,26.1914,-97.0507,2.0,94.37019686,6.167933203,-99999.0,'11133222,11111222,99999999' 
TABS,ioos:station:wmo:42044:1,2006-03-02T15:30:00Z,26.1914,-97.0507,2.0,92.53123871,6.566406932,-99999.0,'11133222,11111222,99999999' 
TABS,ioos:station:wmo:42044:1,2006-03-02T16:00:00Z,26.1914,-97.0507,2.0,84.69908588,4.870831551,-99999.0,'11133222,11111222,99999999' 
TABS,ioos:station:wmo:42044:1,2006-03-02T16:30:00Z,26.1914,-97.0507,2.0,112.243958,4.807795753,-99999.0,'11133222,11111222,99999999' 
TABS,ioos:station:wmo:42044:1,2006-03-02T17:00:00Z,26.1914,-97.0507,2.0,127.366582,2.076078033,-99999.0,'11133222,11111222,99999999' 
TABS,ioos:station:wmo:42044:1,2006-03-02T17:30:00Z,26.1914,-97.0507,2.0,54.6763537,1.556566735,-99999.0,'11133222,11111222,99999999' 
TABS,ioos:station:wmo:42044:1,2006-03-02T18:00:00Z,26.1914,-97.0507,2.0,39.80568847,4.608047309,-99999.0,'11133222,11111222,99999999' 
TABS,ioos:station:wmo:42044:1,2006-03-02T18:30:00Z,26.1914,-97.0507,2.0,22.58924157,7.159231802,-99999.0,'11133222,11111222,99999999' 
TABS,ioos:station:wmo:42044:1,2006-03-02T19:00:00Z,26.1914,-97.0507,2.0,40.25648247,5.044809213,-99999.0,'11133222,11111222,99999999' 
TABS,ioos:station:wmo:42044:1,2006-03-02T19:30:00Z,26.1914,-97.0507,2.0,43.97829362,5.947713847,-99999.0,'11133222,11111222,99999999' 
TABS,ioos:station:wmo:42044:1,2006-03-02T20:00:00Z,26.1914,-97.0507,2.0,51.65554209,6.528162069,-99999.0,'11133222,11111222,99999999' 
TABS,ioos:station:wmo:42044:1,2006-03-02T20:30:00Z,26.1914,-97.0507,2.0,59.97066846,5.994672635,-99999.0,'11133222,11111222,99999999' 
TABS,ioos:station:wmo:42044:1,2006-03-02T21:00:00Z,26.1914,-97.0507,2.0,76.29307105,5.908265397,-99999.0,'11133222,11111222,99999999' 
TABS,ioos:station:wmo:42044:1,2006-03-02T21:30:00Z,26.1914,-97.0507,2.0,74.05464139,8.153723076,-99999.0,'11133222,11111222,99999999' 
TABS,ioos:station:wmo:42044:1,2006-03-02T22:00:00Z,26.1914,-97.0507,2.0,70.87541218,7.355990756,-99999.0,'11133222,11111222,99999999' 
TABS,ioos:station:wmo:42044:1,2006-03-02T22:30:00Z,26.1914,-97.0507,2.0,81.76677429,9.427162882,-99999.0,'11133222,11111222,99999999' 
TABS,ioos:station:wmo:42044:1,2006-03-02T23:00:00Z,26.1914,-97.0507,2.0,88.57045885,5.611746609,-99999.0,'11133222,11111222,99999999' 
TABS,ioos:station:wmo:42044:1,2006-03-02T23:30:00Z,26.1914,-97.0507,2.0,98.96838434,7.056266718,-99999.0,'11133222,11111222,99999999' 
TABS,ioos:station:wmo:42044:1,2006-03-03T00:00:00Z,26.1914,-97.0507,2.0,96.04989611,8.064917855,-99999.0,'11133222,11111222,99999999' 
TABS,ioos:station:wmo:42044:1,2006-03-03T00:30:00Z,26.1914,-97.0507,2.0,102.1941715,7.243431507,-99999.0,'11133222,11111222,99999999' 
TABS,ioos:station:wmo:42044:1,2006-03-03T01:00:00Z,26.1914,-97.0507,2.0,104.2539455,8.935076944,-99999.0,'11133222,11111222,99999999' 
TABS,ioos:station:wmo:42044:1,2006-03-03T01:30:00Z,26.1914,-97.0507,2.0,105.3033117,8.335562369,-99999.0,'11133222,11111222,99999999' 
TABS,ioos:station:wmo:42044:1,2006-03-03T02:00:00Z,26.1914,-97.0507,2.0,110.8472647,7.13726138,-99999.0,'11133222,11111222,99999999' 
TABS,ioos:station:wmo:42044:1,2006-03-03T02:30:00Z,26.1914,-97.0507,2.0,132.4607315,6.384371543,-99999.0,'11133222,11111222,99999999' 
TABS,ioos:station:wmo:42044:1,2006-03-03T03:00:00Z,26.1914,-97.0507,2.0,136.0217064,5.947713847,-99999.0,'11133222,11111222,99999999' 
TABS,ioos:station:wmo:42044:1,2006-03-03T03:30:00Z,26.1914,-97.0507,2.0,139.1537381,6.345273832,-99999.0,'11133222,11111222,99999999' 
TABS,ioos:station:wmo:42044:1,2006-03-03T04:00:00Z,26.1914,-97.0507,2.0,176.5240636,4.618495426,-99999.0,'11133222,11111222,99999999' 
TABS,ioos:station:wmo:42044:1,2006-03-03T04:30:00Z,26.1914,-97.0507,2.0,162.5299566,6.195780822,-99999.0,'11133222,11111222,99999999' 
TABS,ioos:station:wmo:42044:1,2006-03-03T05:00:00Z,26.1914,-97.0507,2.0,175.7813666,7.069151293,-99999.0,'11133222,11111222,99999999' 
TABS,ioos:station:wmo:42044:1,2006-03-03T05:30:00Z,26.1914,-97.0507,2.0,173.5632881,7.225544962,-99999.0,'11133222,11111222,99999999' 
TABS,ioos:station:wmo:42044:1,2006-03-03T06:00:00Z,26.1914,-97.0507,2.0,183.5660105,7.07369776,-99999.0,'11133222,11111222,99999999' 
TABS,ioos:station:wmo:42044:1,2006-03-03T06:30:00Z,26.1914,-97.0507,2.0,187.1641812,7.216342564,-99999.0,'11133222,11111222,99999999' 
TABS,ioos:station:wmo:42044:1,2006-03-03T07:00:00Z,26.1914,-97.0507,2.0,199.1905306,5.993037627,-99999.0,'11133222,11111222,99999999' 
TABS,ioos:station:wmo:42044:1,2006-03-03T07:30:00Z,26.1914,-97.0507,2.0,191.9542444,6.276113447,-99999.0,'11133222,11111222,99999999' 
TABS,ioos:station:wmo:42044:1,2006-03-03T08:00:00Z,26.1914,-97.0507,2.0,207.7413651,6.31598765,-99999.0,'11133222,11111222,99999999' 
TABS,ioos:station:wmo:42044:1,2006-03-03T08:30:00Z,26.1914,-97.0507,2.0,176.6772116,6.901601263,-99999.0,'11133222,11111222,99999999' 
TABS,ioos:station:wmo:42044:1,2006-03-03T09:00:00Z,26.1914,-97.0507,2.0,182.3698187,7.496412475,-99999.0,'11133222,11111222,99999999' 
TABS,ioos:station:wmo:42044:1,2006-03-03T09:30:00Z,26.1914,-97.0507,2.0,192.422465,8.785698606,-99999.0,'11133222,11111222,99999999' 
TABS,ioos:station:wmo:42044:1,2006-03-03T10:00:00Z,26.1914,-97.0507,2.0,173.4758966,7.921294086,-99999.0,'11133222,11111222,99999999' 
TABS,ioos:station:wmo:42044:1,2006-03-03T10:30:00Z,26.1914,-97.0507,2.0,174.3493521,8.531453569,-99999.0,'11133222,11111222,99999999' 
TABS,ioos:station:wmo:42044:1,2006-03-03T11:00:00Z,26.1914,-97.0507,2.0,185.5137192,8.11756121,-99999.0,'11133222,11111222,99999999' 
TABS,ioos:station:wmo:42044:1,2006-03-03T11:30:00Z,26.1914,-97.0507,2.0,173.1065671,7.665409317,-99999.0,'11133222,11111222,99999999' 
TABS,ioos:station:wmo:42044:1,2006-03-03T12:00:00Z,26.1914,-97.0507,2.0,183.4972535,7.704349421,-99999.0,'11133222,11111222,99999999' 
TABS,ioos:station:wmo:42044:1,2006-03-03T12:30:00Z,26.1914,-97.0507,2.0,171.4690439,7.685024398,-99999.0,'11133222,11111222,99999999' 
TABS,ioos:station:wmo:42044:1,2006-03-03T13:00:00Z,26.1914,-97.0507,2.0,167.2041624,8.849774008,-99999.0,'11133222,11111222,99999999' 
TABS,ioos:station:wmo:42044:1,2006-03-03T13:30:00Z,26.1914,-97.0507,2.0,168.6076803,9.568516081,-99999.0,'11133222,11111222,99999999' 
TABS,ioos:station:wmo:42044:1,2006-03-03T14:00:00Z,26.1914,-97.0507,2.0,161.4117458,8.282034774,-99999.0,'11133222,11111222,99999999' 
TABS,ioos:station:wmo:42044:1,2006-03-03T14:30:00Z,26.1914,-97.0507,2.0,161.6260753,8.882843013,-99999.0,'11133222,11111222,99999999' 
TABS,ioos:station:wmo:42044:1,2006-03-03T15:00:00Z,26.1914,-97.0507,2.0,168.1320854,8.460851021,-99999.0,'11133222,11111222,99999999' 
TABS,ioos:station:wmo:42044:1,2006-03-03T15:30:00Z,26.1914,-97.0507,2.0,163.4568448,8.428902657,-99999.0,'11133222,11111222,99999999' 
TABS,ioos:station:wmo:42044:1,2006-03-03T16:00:00Z,26.1914,-97.0507,2.0,165.2871217,9.44984656,-99999.0,'11133222,11111222,99999999' 
TABS,ioos:station:wmo:42044:1,2006-03-03T16:30:00Z,26.1914,-97.0507,2.0,164.0082992,8.530093786,-99999.0,'11133222,11111222,99999999' 
TABS,ioos:station:wmo:42044:1,2006-03-03T17:00:00Z,26.1914,-97.0507,2.0,153.5043621,11.05065609,-99999.0,'11111222,11111222,99999999' 
TABS,ioos:station:wmo:42044:1,2006-03-03T17:30:00Z,26.1914,-97.0507,2.0,168.7081422,12.30824927,-99999.0,'11111222,11111222,99999999' 
TABS,ioos:station:wmo:42044:1,2006-03-03T18:00:00Z,26.1914,-97.0507,2.0,169.652484,10.85656023,-99999.0,'11111222,11111222,99999999' 
TABS,ioos:station:wmo:42044:1,2006-03-03T18:30:00Z,26.1914,-97.0507,2.0,158.6430668,10.05013433,-99999.0,'11111222,11111222,99999999' 
TABS,ioos:station:wmo:42044:1,2006-03-03T19:00:00Z,26.1914,-97.0507,2.0,158.8541591,12.16941248,-99999.0,'11111222,11111222,99999999' 
TABS,ioos:station:wmo:42044:1,2006-03-03T19:30:00Z,26.1914,-97.0507,2.0,155.417768,10.98567249,-99999.0,'11111222,11111222,99999999' 
TABS,ioos:station:wmo:42044:1,2006-03-03T20:00:00Z,26.1914,-97.0507,2.0,160.9757463,12.30191042,-99999.0,'11111222,11111222,99999999' 
TABS,ioos:station:wmo:42044:1,2006-03-03T20:30:00Z,26.1914,-97.0507,2.0,172.2772903,13.91621357,-99999.0,'11111222,11111222,99999999' 
TABS,ioos:station:wmo:42044:1,2006-03-03T21:00:00Z,26.1914,-97.0507,2.0,159.21645,13.27374099,-99999.0,'11111222,11111222,99999999' 
TABS,ioos:station:wmo:42044:1,2006-03-03T21:30:00Z,26.1914,-97.0507,2.0,165.6573574,13.16017097,-99999.0,'11111222,11111222,99999999' 
TABS,ioos:station:wmo:42044:1,2006-03-03T22:00:00Z,26.1914,-97.0507,2.0,175.8052888,11.62112731,-99999.0,'11111222,11111222,99999999' 
TABS,ioos:station:wmo:42044:1,2006-03-03T22:30:00Z,26.1914,-97.0507,2.0,177.5069117,14.94414267,-99999.0,'11111222,11111222,99999999' 
TABS,ioos:station:wmo:42044:1,2006-03-03T23:00:00Z,26.1914,-97.0507,2.0,181.0887813,14.732661,-99999.0,'11111222,11111222,99999999' 
TABS,ioos:station:wmo:42044:1,2006-03-03T23:30:00Z,26.1914,-97.0507,2.0,189.4941916,14.67096793,-99999.0,'11111222,11111222,99999999' 
TABS,ioos:station:wmo:42044:1,2006-03-04T00:00:00Z,26.1914,-97.0507,2.0,189.2497069,13.74878176,-99999.0,'11111222,11111222,99999999' 
TABS,ioos:station:wmo:42044:1,2006-03-04T00:30:00Z,26.1914,-97.0507,2.0,200.5237677,14.66057639,-99999.0,'11111222,11111222,99999999' 
TABS,ioos:station:wmo:42044:1,2006-03-04T01:00:00Z,26.1914,-97.0507,2.0,199.9513336,15.53222457,-99999.0,'11111222,11111222,99999999' 
TABS,ioos:station:wmo:42044:1,2006-03-04T01:30:00Z,26.1914,-97.0507,2.0,203.0043064,15.12264858,-99999.0,'11111222,11111222,99999999' 
TABS,ioos:station:wmo:42044:1,2006-03-04T02:00:00Z,26.1914,-97.0507,2.0,199.9920618,15.94060538,-99999.0,'11111222,11111222,99999999' 
TABS,ioos:station:wmo:42044:1,2006-03-04T02:30:00Z,26.1914,-97.0507,2.0,197.7444197,13.64938094,-99999.0,'11111222,11111222,99999999' 
TABS,ioos:station:wmo:42044:1,2006-03-04T03:00:00Z,26.1914,-97.0507,2.0,212.3853171,14.37600779,-99999.0,'11111222,11111222,99999999' 
TABS,ioos:station:wmo:42044:1,2006-03-04T03:30:00Z,26.1914,-97.0507,2.0,206.1183727,14.92397065,-99999.0,'11111222,11111222,99999999' 
TABS,ioos:station:wmo:42044:1,2006-03-04T04:00:00Z,26.1914,-97.0507,2.0,207.2138442,14.60693329,-99999.0,'11111222,11111222,99999999' 
TABS,ioos:station:wmo:42044:1,2006-03-04T04:30:00Z,26.1914,-97.0507,2.0,199.9794567,14.42839215,-99999.0,'11111222,11111222,99999999' 
TABS,ioos:station:wmo:42044:1,2006-03-04T05:00:00Z,26.1914,-97.0507,2.0,218.0355768,14.05491017,-99999.0,'11111222,11111222,99999999' 
TABS,ioos:station:wmo:42044:1,2006-03-04T05:30:00Z,26.1914,-97.0507,2.0,222.1512256,14.51362119,-99999.0,'11111222,11111222,99999999' 
TABS,ioos:station:wmo:42044:1,2006-03-04T06:00:00Z,26.1914,-97.0507,2.0,219.0111614,14.50413045,-99999.0,'11111222,11111222,99999999' 
TABS,ioos:station:wmo:42044:1,2006-03-04T06:30:00Z,26.1914,-97.0507,2.0,233.12179,14.36400014,-99999.0,'11111222,11111222,99999999' 
TABS,ioos:station:wmo:42044:1,2006-03-04T07:00:00Z,26.1914,-97.0507,2.0,226.7829832,13.40616649,-99999.0,'11111222,11111222,99999999' 
TABS,ioos:station:wmo:42044:1,2006-03-04T07:30:00Z,26.1914,-97.0507,2.0,239.2343016,13.37182486,-99999.0,'11111222,11111222,99999999' 
TABS,ioos:station:wmo:42044:1,2006-03-04T08:00:00Z,26.1914,-97.0507,2.0,234.2865901,11.39232198,-99999.0,'11111222,11111222,99999999' 
TABS,ioos:station:wmo:42044:1,2006-03-04T08:30:00Z,26.1914,-97.0507,2.0,232.5031055,11.15466718,-99999.0,'11111222,11111222,99999999' 
TABS,ioos:station:wmo:42044:1,2006-03-04T09:00:00Z,26.1914,-97.0507,2.0,226.1031558,8.812184746,-99999.0,'11133222,11111222,99999999' 
TABS,ioos:station:wmo:42044:1,2006-03-04T09:30:00Z,26.1914,-97.0507,2.0,226.1931709,10.86351693,-99999.0,'11111222,11111222,99999999' 
TABS,ioos:station:wmo:42044:1,2006-03-04T10:00:00Z,26.1914,-97.0507,2.0,224.252856,7.594972021,-99999.0,'11133222,11111222,99999999' 
TABS,ioos:station:wmo:42044:1,2006-03-04T10:30:00Z,26.1914,-97.0507,2.0,222.8147656,7.047907491,-99999.0,'11133222,11111222,99999999' 
TABS,ioos:station:wmo:42044:1,2006-03-04T11:00:00Z,26.1914,-97.0507,2.0,232.2375446,6.678809774,-99999.0,'11133222,11111222,99999999' 
TABS,ioos:station:wmo:42044:1,2006-03-04T11:30:00Z,26.1914,-97.0507,2.0,215.4212838,4.5894662,-99999.0,'11133222,11111222,99999999' 
TABS,ioos:station:wmo:42044:1,2006-03-04T12:00:00Z,26.1914,-97.0507,2.0,203.1217888,4.914804167,-99999.0,'11133222,11111222,99999999' 
TABS,ioos:station:wmo:42044:1,2006-03-04T12:30:00Z,26.1914,-97.0507,2.0,188.9288823,5.476367409,-99999.0,'11133222,11111222,99999999' 
TABS,ioos:station:wmo:42044:1,2006-03-04T13:00:00Z,26.1914,-97.0507,2.0,169.610956,6.71,-99999.0,'11133222,11111222,99999999' 
TABS,ioos:station:wmo:42044:1,2006-03-04T13:30:00Z,26.1914,-97.0507,2.0,158.0151123,6.384238404,-99999.0,'11133222,11111222,99999999' 
TABS,ioos:station:wmo:42044:1,2006-03-04T14:00:00Z,26.1914,-97.0507,2.0,143.5813695,7.108220593,-99999.0,'11133222,11111222,99999999' 
TABS,ioos:station:wmo:42044:1,2006-03-04T14:30:00Z,26.1914,-97.0507,2.0,144.6565312,7.882797727,-99999.0,'11133222,11111222,99999999' 
TABS,ioos:station:wmo:42044:1,2006-03-04T15:00:00Z,26.1914,-97.0507,2.0,142.6332075,9.688364155,-99999.0,'11133222,11111222,99999999' 
TABS,ioos:station:wmo:42044:1,2006-03-04T15:30:00Z,26.1914,-97.0507,2.0,142.2832447,9.203004944,-99999.0,'11133222,11111222,99999999' 
TABS,ioos:station:wmo:42044:1,2006-03-04T16:00:00Z,26.1914,-97.0507,2.0,146.2407033,11.49894343,-99999.0,'11111222,11111222,99999999' 